Location: Unspecified
(0.0000°N, 0.0000°E)
Time: 18:11:28
(UTC+00:00)

Transit 2A - Pass Details

Date: 25 May 2025
Orbit: 600 x 947 km, 66.7° (Epoch: 11 June)

Event Time Altitude Azimuth Distance (km) Brightness Sun altitude
Exits shadow 03:46:49 44° 121° (ESE) 1,039 6.8 -30.1°
Maximum altitude 03:47:08 44° 111° (ESE) 1,026 6.8 -30.1°
Drops below altitude 10° 03:51:48 10° 39° (NE) 2,156 9.1 -29.0°
Sets 03:54:06 0° 33° (NNE) 3,020 9.9 -28.5°
